Hourly Data Report for October 24, 2013

All times are specified in Local Standard Time (LST). Add 1 hour to adjust for Daylight Saving Time where and when it is observed.

SAINT JOHN A
NEW BRUNSWICK

45°18'58.000" N
65°53'24.000" W
108.80 m
8104901
71609
YSJ

Download Data

Hourly Data (October 2013)
Hourly Data Report for October 24, 2013
Temp Definition
°C
Dew Point Temp Definition
°C
Rel Hum Definition
%
Wind Dir Definition
10's deg

Wind Spd Definition
km/h
Visibility Definition
km
Stn Press Definition
kPa
Hmdx Definition


Wind Chill Definition


Weather Definition


TIME
00:00 Legend Double Dagger 4.9 2.8 86 9 4 24.1 98.76     LegendNANA
01:00 Legend Double Dagger 5.6 2.4 80 36 10 24.1 98.74     LegendNANA
02:00 Legend Double Dagger 5.1 2.3 82 35 14 24.1 98.63     Cloudy
03:00 Legend Double Dagger 4.7 2.9 88 31 9 24.1 98.64     LegendNANA
04:00 Legend Double Dagger 4.7 2.4 85 33 12 24.1 98.66     LegendNANA
05:00 Legend Double Dagger 4.1 1.8 85 31 6 24.1 98.73     Cloudy
06:00 Legend Double Dagger 3.8 0.7 80 30 10 24.1 98.77     LegendNANA
07:00 Legend Double Dagger 2.2 0.3 87 29 5 24.1 98.83     LegendNANA
08:00 Legend Double Dagger 4.0 0.9 80 28 9 24.1 98.90     Mainly Clear
09:00 Legend Double Dagger 5.9 0.1 66 26 18 24.1 98.96     LegendNANA
10:00 Legend Double Dagger 7.5 -1.2 54 27 22 24.1 98.94     LegendNANA
11:00 Legend Double Dagger 7.8 -4.0 43 28 30 24.1 98.95     Mainly Clear
12:00 Legend Double Dagger 8.9 -4.0 40 25 24 24.1 98.90     LegendNANA
13:00 Legend Double Dagger 7.3 -3.8 45 25 21 24.1 98.86     LegendNANA
14:00 Legend Double Dagger 7.8 -2.2 49 26 25 24.1 98.84     Mostly Cloudy
15:00 Legend Double Dagger 7.0 -4.1 45 26 19 24.1 98.89     LegendNANA
16:00 Legend Double Dagger 6.7 -4.4 45 27 20 24.1 98.95     LegendNANA
17:00 Legend Double Dagger 5.7 -4.7 47 25 16 24.1 99.01     Mostly Cloudy
18:00 Legend Double Dagger 4.4 -4.1 54 24 8 24.1 99.03     LegendNANA
19:00 Legend Double Dagger 4.7 -3.6 55 24 10 24.1 99.06     LegendNANA
20:00 Legend Double Dagger 6.3 -3.6 49 24 18 24.1 99.09     Cloudy
21:00 Legend Double Dagger 6.4 -3.0 51 26 18 24.1 99.11     LegendNANA
22:00 Legend Double Dagger 6.3 -2.6 53 26 22 24.1 99.13     LegendNANA
23:00 Legend Double Dagger 5.6 -2.0 58 27 18 24.1 99.15     Mostly Cloudy

Notes on Data Quality.

Legend

  • E = Estimated
  • M = Missing
  • NA = Not Available
  • ‡ = Partner data that is not subject to review by the National Climate Archives
Date modified: